軌道要素
Epoch 2015 Feb. 27.0 TT = JDT 2457080.5
T 2015 Feb. 19.92976 TT MPCW
q 3.7585242 (2000.0) P Q
n 0.03805584 Peri. 227.59331 -0.70439301 -0.70915528
a 8.7536371 Node 267.21496 +0.65987381 -0.63840999
e 0.5706329 Incl. 1.74894 +0.26152827 -0.29921809
P 25.90
From 78 observations 2015 Jan. 16-2016 Apr. 27, mean residual 0".3.
|